This demonstration page uses our WeatherBlox Daily Observations layout. Learn more.

Left ArrowRight Arrow

39.01783, -85.05884

Hourly Observations for February 26, 2020

Temp ( °F °C ) Dew Point ( °F °C ) Humidity (%) Winds ( mph kmh ) Pressure ( in mb ) Visibility ( mi km ) Precip ( " mm )
12:04 am 00:04 Mostly Cloudy with Fog 40 4.4 39 3.9 97 97 NNW 6 9 29.89 1012 0.25 0.402335 0 0
12:24 am 00:24 Mostly Cloudy with Fog 40 4.4 39 3.9 97 97 N 6 9 29.89 1012 0.25 0.402335 0 0
12:52 am 00:52 Mostly Cloudy with Fog 40 4.4 39 3.9 97 97 NNW 6 9 29.86 1011 0.25 0.402335 0 0
1:52 am 01:52 Mostly Cloudy with Fog 39 3.9 38 3.3 96 96 N 8 13 29.86 1011 0.25 0.402335 0 0
2:04 am 02:04 Mostly Cloudy with Fog 39 3.9 38 3.3 96 96 NNW 7 11 29.9 1013 0.25 0.402335 0 0
2:52 am 02:52 Mostly Cloudy with Fog 38 3.3 37 2.8 97 97 N 7 11 29.86 1011 0.25 0.402335 0 0
3:52 am 03:52 Mostly Cloudy with Fog 38 3.3 37 2.8 97 97 NNW 6 9 29.86 1011 0.25 0.402335 0 0
4:52 am 04:52 Cloudy with Mist and Fog 38 3.3 37 2.8 97 97 N 5 7 29.86 1011 0.25 0.402335 0.001 0.001
5:52 am 05:52 Mostly Cloudy with Mist and Fog 37 2.8 36 2.2 96 96 N 5 7 29.85 1011 0.25 0.402335 0 0
6:52 am 06:52 Cloudy with Mist and Fog 37 2.8 36 2.2 96 96 VRB 5 7 29.85 1011 0.25 0.402335 0 0
7:52 am 07:52 Cloudy with Light Rain 37 2.8 36 2.2 96 96 N 5 7 29.86 1011 0.25 0.402335 0.001 0.001
8:36 am 08:36 Mostly Cloudy with Light Rain 37 2.8 36 2.2 96 96 NNW 5 7 29.88 1012 0.25 0.402335 0.01 0.254
8:52 am 08:52 Cloudy with Light Rain 37 2.8 36 2.2 96 96 NNW 5 7 29.85 1011 0.25 0.402335 0.02 0.508
9:26 am 09:26 Cloudy with Light Rain 38 3.3 36 2.2 93 93 NE 3 6 29.87 1012 0.5 0.80467 0.01 0.254
9:52 am 09:52 Cloudy with Light Rain 38 3.3 36 2.2 93 93 NE 3 6 29.83 1010 0.5 0.80467 0.01 0.254
10:09 am 10:09 Cloudy with Light Rain 38 3.3 36 2.2 93 93 Calm 29.85 1011 1.5 2.41401 0.01 0.254
10:52 am 10:52 Cloudy with Light Rain 38 3.3 36 2.2 93 93 W 5 7 29.82 1010 1.5 2.41401 0.03 0.762
11:17 am 11:17 Cloudy with Rain 38 3.3 36 2.2 93 93 W 8 13 29.85 1011 1.5 2.41401 0.02 0.508
11:19 am 11:19 Cloudy with Rain 38 3.3 36 2.2 93 93 WNW 8 13 29.85 1011 2 3.21868 0.03 0.762
11:52 am 11:52 Cloudy with Light Rain 38 3.3 36 2.2 93 93 W 8 13 29.83 1010 2 3.21868 0.06 1.524
12:52 pm 12:52 Cloudy with Light Rain 36 2.2 33 0.6 89 89 NW 13 20 29.83 1010 2 3.21868 0.04 1.016
1:32 pm 13:32 Cloudy with Light Rain/Snow 36 2.2 33 0.6 89 89 NW 12 19 29.83 1010 2 3.21868 0.02 0.508
1:52 pm 13:52 Cloudy with Light Rain/Snow 36 2.2 33 0.6 89 89 WNW 13 20 29.81 1010 2 3.21868 0.03 0.762
2:35 pm 14:35 Cloudy with Light Snow 35 1.7 32 0 89 89 WNW 12 19 29.83 1010 1.5 2.41401 0.01 0.254
2:52 pm 14:52 Cloudy with Light Snow 35 1.7 33 0.6 93 93 WNW 10 17 29.81 1010 1.5 2.41401 0.02 0.508
2:59 pm 14:59 Cloudy with Light Rain/Snow 35 1.7 32 0 89 89 WNW 10 17 29.85 1011 3 4.82802 0.001 0.001
3:05 pm 15:05 Cloudy with Mist and Fog 36 2.2 32 0 86 86 WNW 16 26 29.85 1011 5 8.0467 0.001 0.001
3:33 pm 15:33 Cloudy with Mist and Fog 35 1.7 31 -0.6 85 85 WNW 15 24 29.86 1011 5 8.0467 0.001 0.001
3:52 pm 15:52 Cloudy with Light Snow 36 2.2 31 -0.6 82 82 WNW 13 20 29.83 1010 9 14.48406 0.001 0.001
3:59 pm 15:59 Cloudy with Light Snow 34 1.1 30 -1.1 85 85 WNW 15 24 29.86 1011 2 3.21868 0.001 0.001
4:03 pm 16:03 Cloudy with Light Snow 34 1.1 30 -1.1 85 85 WNW 17 28 29.87 1012 1.25 2.011675 0.001 0.001
4:16 pm 16:16 Cloudy with Light Snow 34 1.1 30 -1.1 85 85 WNW 16 26 29.87 1012 2 3.21868 0.001 0.001
4:27 pm 16:27 Windy with Snow Likely 34 1.1 31 -0.6 89 89 W 20 31 29.88 1012 3 4.82802 0.001 0.001
4:52 pm 16:52 Cloudy with Light Snow 34 1.1 30 -1.1 85 85 WNW 13 20 29.86 1011 9 14.48406 0.001 0.001
5:52 pm 17:52 Cloudy with Light Snow 32 0 27 -2.8 82 82 WNW 16 26 29.89 1012 6 9.65604 0.001 0.001
6:07 pm 18:07 Cloudy with Light Snow 32 0 27 -2.8 82 82 WNW 17 28 29.94 1014 2 3.21868 0.001 0.001
6:32 pm 18:32 Cloudy with Light Snow 31 -0.6 27 -2.8 85 85 WNW 16 26 29.95 1014 2.5 4.02335 0.001 0.001
6:52 pm 18:52 Cloudy with Light Snow 31 -0.6 26 -3.3 82 82 WNW 16 26 29.92 1013 7 11.26538 0.001 0.001
7:31 pm 19:31 Windy with Snow Likely 30 -1.1 25 -3.9 82 82 WNW 20 31 29.98 1015 9 14.48406 0.001 0.001
7:52 pm 19:52 Cloudy with Light Snow 30 -1.1 25 -3.9 82 82 WNW 17 28 29.95 1014 6 9.65604 0.001 0.001
8:52 pm 20:52 Windy with Snow Likely 30 -1.1 24 -4.4 79 79 NW 20 31 29.97 1015 5 8.0467 0.001 0.001
9:52 pm 21:52 Windy with Snow Likely 29 -1.7 22 -5.6 75 75 NW 20 31 30 1016 9 14.48406 0.001 0.001
10:14 pm 22:14 Cloudy with Light Snow 29 -1.7 23 -5 78 78 NW 16 26 30.04 1017 7 11.26538 0.001 0.001
10:52 pm 22:52 Cloudy with Light Snow 30 -1.1 24 -4.4 79 79 WNW 13 20 30.01 1016 9 14.48406 0.001 0.001
11:36 pm 23:36 Windy with Snow Likely 29 -1.7 21 -6.1 72 72 NW 21 33 30.07 1018 9 14.48406 0.001 0.001
11:52 pm 23:52 Cloudy 29 -1.7 19 -7.2 66 66 NW 20 31 30.02 1017 9 14.48406 0.001 0.001

Powered by AerisWeather